Miles City, MT

5:28 AM MDT on August 23, 2017 (GMT -0600)
Wiley

Weather History for KMLS - September, 2013

Change the Weather History Date:

Friday, September 27, 2013

  Actual Average Record
Temperature  
Mean Temperature 45 °F 54 °F  
Max Temperature 53 °F 68 °F 91 °F (1943)
Min Temperature 36 °F 41 °F 22 °F (1951)
Degree Days  
Heating Degree Days 20 11  
Month to date heating degree days 80 167  
Since 1 July heating degree days 80 201  
Cooling Degree Days 0 0  
Month to date cooling degree days 142 56  
Year to date cooling degree days 877 728  
Moisture  
Dew Point 37 °F    
Average Humidity 71    
Maximum Humidity 92    
Minimum Humidity 50    
Precipitation  
Precipitation 0.00 in 0.04 in 0.94 in (1982)
Month to date precipitation 1.50 0.97  
Year to date precipitation 15.34 10.73  
Sea Level Pressure  
Sea Level Pressure 29.95 in    
Wind  
Wind Speed 7 mph (West)    
Max Wind Speed 16 mph    
Max Gust Speed 21 mph    
Visibility 10 miles    
Events      
T = Trace of Precipitation, MM = Missing Value Source: NWS Daily Summary

Daily Weather History Graph

Daily Weather History Graph

Search for Another Location

Airport or City:

Trip Planner

Search our weather history database for the weather conditions in past years. The results will help you decide how hot, cold, wet, or windy it might be!

Date:

Astronomy

Sep. 27, 2013 Rise Set
Actual Time 6:57 AM MDT 6:50 PM MDT
Civil Twilight 6:27 AM MDT 7:20 PM MDT
Nautical Twilight 5:52 AM MDT 7:55 PM MDT
Astronomical Twilight 5:16 AM MDT 8:31 PM MDT
Moon No Moon Rise 2:49 PM MDT (9/27)
Length of Visible Light 12h 53m
Length of Day
11h 53m
Last Quarter, 44% of the Moon is Illuminated
Sep 27
Last Quarter
Oct 4
New
Oct 11
First Quarter
Oct 18
Full
Oct 26
Last Quarter

Hourly Weather History & Observations

Time (MDT) Temp. Windchill Dew Point Humidity Pressure Visibility Wind Dir Wind Speed Gust Speed Precip Events Conditions
12:53 AM 45.0 °F 41.2 °F 39.9 °F 82% 30.02 in 10.0 mi West 6.9 mph - N/A   Overcast
1:53 AM 45.0 °F 40.6 °F 39.9 °F 82% 29.98 in 10.0 mi WNW 8.1 mph - N/A   Scattered Clouds
2:53 AM 45.0 °F 41.2 °F 39.9 °F 82% 29.96 in 10.0 mi WNW 6.9 mph - N/A   Overcast
3:53 AM 44.1 °F 39.5 °F 39.9 °F 85% 29.96 in 10.0 mi West 8.1 mph - N/A   Partly Cloudy
4:53 AM 44.1 °F 40.1 °F 39.9 °F 85% 29.97 in 10.0 mi WNW 6.9 mph - N/A   Overcast
5:53 AM 43.0 °F 38.2 °F 39.0 °F 86% 29.96 in 10.0 mi WNW 8.1 mph - N/A   Clear
6:53 AM 43.0 °F 39.5 °F 39.9 °F 89% 29.96 in 10.0 mi West 5.8 mph - N/A   Overcast
7:53 AM 44.1 °F 41.5 °F 39.9 °F 85% 29.97 in 10.0 mi West 4.6 mph - N/A   Overcast
8:53 AM 45.0 °F 41.2 °F 39.0 °F 80% 29.97 in 10.0 mi WNW 6.9 mph - N/A   Scattered Clouds
9:53 AM 46.0 °F 44.8 °F 37.9 °F 73% 29.98 in 10.0 mi NW 3.5 mph - N/A   Overcast
10:53 AM 48.9 °F - 37.0 °F 64% 29.97 in 10.0 mi WSW 5.8 mph - N/A   Overcast
11:53 AM 50.0 °F - 37.9 °F 63% 29.96 in 10.0 mi WSW 6.9 mph - N/A   Overcast
12:53 PM 50.0 °F - 37.0 °F 61% 29.95 in 10.0 mi SW 5.8 mph - N/A   Overcast
1:53 PM 51.1 °F - 36.0 °F 56% 29.93 in 10.0 mi WSW 6.9 mph - N/A   Overcast
2:53 PM 52.0 °F - 34.0 °F 50% 29.92 in 10.0 mi West 6.9 mph - N/A   Overcast
3:53 PM 52.0 °F - 34.0 °F 50% 29.91 in 10.0 mi West 6.9 mph - N/A   Mostly Cloudy
4:53 PM 51.1 °F - 35.1 °F 54% 29.91 in 10.0 mi West 15.0 mph - N/A   Overcast
5:53 PM 51.1 °F - 33.1 °F 50% 29.93 in 10.0 mi WSW 11.5 mph - N/A   Partly Cloudy
6:53 PM 46.9 °F - 37.9 °F 71% 29.94 in 10.0 mi WSW 8.1 mph - N/A   Clear
7:53 PM 43.0 °F 37.7 °F 37.0 °F 80% 29.95 in 10.0 mi SSW 9.2 mph - N/A   Clear
8:53 PM 42.1 °F 37.1 °F 37.0 °F 82% 29.95 in 10.0 mi SSW 8.1 mph - N/A   Clear
9:53 PM 41.0 °F 37.1 °F 36.0 °F 82% 29.94 in 10.0 mi SSW 5.8 mph - N/A   Clear
10:53 PM 39.9 °F 37.8 °F 36.0 °F 86% 29.91 in 10.0 mi SSE 3.5 mph - N/A   Partly Cloudy
11:53 PM 37.9 °F - 36.0 °F 93% 29.89 in 10.0 mi Calm Calm - N/A   Clear